Flag Weather past 2 weeks in Santa Rosa, California, U.S.A.

Now
43 °F

Fog.


Feels Like: 43 °F
Forecast: 41 / 58 °F
Wind: No wind

Location: Santa Rosa Sonoma County Airport

Current Time: Nov 27, 2014 at 11:33:39 PM

Latest Report: Nov 27, 2014 at 10:58 PM


Visibility: 0 mi

Pressure: 30.07 "Hg

Humidity: 100%

Dew point: 43 °F

Location of Santa RosaLocation

Historic Weather in Santa Rosa — Graph

°F

Santa Rosa temperature yesterday

Maximum temperature yesterday: 67 °F (at 2:53 PM)
Minimum temperature yesterday: 37 °F (at 7:00 AM)
Average temperature yesterday: 50 °F

Past Weeks' High & Low Weather Summary

 TemperatureHumidityPressure
High70 °F (Nov 15, 1:53 PM)100% (Nov 13, 12:02 AM)30.45 "Hg (Nov 13, 12:02 AM)
Low36 °F (Nov 17, 6:53 AM)28% (Nov 17, 2:53 PM)29.91 "Hg (Nov 13, 2:53 AM)
Average52 °F82%30.14 "Hg
* Reported Nov 12 9:53 PM — Nov 27 9:53 PM, Santa Rosa, Weather by CustomWeather, © 2014

Note: Actual official high and low records may vary slightly from our data, if they occured in-between our weather recording intervals... More about our weather records

Advertising

Santa Rosa weather history for previous 24 hours

 ConditionsComfort  
Time TempWeatherWind HumidityBarometerVisibility
9:53 PM
Nov 27
44 °FFog.No wind96%30.04 "Hg6 mi
8:53 PM45 °FFog.3 mph97%30.05 "Hg6 mi
7:53 PM48 °FClear.No wind89%30.04 "Hg10 mi
6:53 PM51 °FClear.No wind83%30.03 "Hg9 mi
5:53 PM57 °FPassing clouds.No wind69%30.02 "Hg10 mi
4:53 PM63 °FPassing clouds.3 mph58%30.03 "Hg9 mi
3:53 PM67 °FSunny.5 mph53%30.03 "Hg9 mi
2:53 PM68 °FScattered clouds.No wind49%30.04 "Hg10 mi
1:53 PM68 °FScattered clouds.5 mph49%30.05 "Hg10 mi
12:53 PM66 °FScattered clouds.No wind52%30.09 "Hg10 mi
11:53 AM62 °FPartly sunny.No wind58%30.12 "Hg10 mi
10:53 AM59 °FPartly sunny.No wind64%30.14 "Hg10 mi
9:53 AM54 °FPartly sunny.No wind80%30.16 "Hg10 mi
8:53 AM47 °FPartly sunny.3 mph93%30.16 "Hg10 mi
7:53 AM41 °FPartly sunny.No wind96%30.16 "Hg10 mi
7:00 AM39 °FFog.No wind93%30.18 "Hg1 mi
6:04 AM39 °FFog.No wind100%30.18 "Hg1 mi
6:01 AM41 °FFog.No wind100%30.18 "Hg1 mi
4:53 AM43 °FFog.3 mph97%30.15 "Hg6 mi
3:53 AM43 °FClear.No wind97%30.15 "Hg8 mi
2:53 AM43 °FFog.No wind100%30.16 "Hg3 mi
1:53 AM44 °FClear.No wind96%30.16 "Hg10 mi
12:53 AM45 °FClear.3 mph97%30.18 "Hg10 mi
11:53 PM
Nov 26
46 °FClear.No wind96%30.19 "Hg9 mi
Weather by CustomWeather, © 2014

See weather overviewHow to use our weather pages